Terug naar catalogus

FENGYUN 1C DEB

ActiefSSO
NORAD 29906·DEBRIS·🇨🇳 China

Gelanceerd May 10, 1999 vanaf Taiyuan Satellite Launch Center

Loading…

Volgende Passages (komende 24 uur)

TLE

VersSource: Space-Track

Epoch: Sep 14, 2026, 18:35 UTC

1 29906U 99025HC  26257.77452542  .00004970  00000-0  11860-2 0  9997
2 29906  98.7157  16.2096 0033131  33.1381 327.1881 14.53834181 21617

Volg FENGYUN 1C DEB in realtime met AllMySat

Download on the App Store